Showing default

TIANQI-15, 49027

Orbit data source: Space-Track

TIANQI-15, 49027 is a payload satellite owned by Guodian Gaokeji (CN) in LEO that was launched on Mon, 19 Jul 2021 UTC via a CHANG ZHENG 2C launch vehicle from the Xichang Space Center, China (XSC). Payload-class satellites include a variety of spacecraft equipped with specific instruments for various scientific and technological missions. These include communications satellites like Starlink; space stations such as the ISS; scientific satellites like the Hubble; Earth observation satellites from companies like Planet Labs, Umbra, and HawkEye 360; GPS; miniature CubeSats for education and research; and military/defense satellites.

Loading next visibility...
Identifier
49027, 2021-065B
Orbit
LEO
Country
Flag of CNCN / PRC
Related business
Manufacturer
Shanghai ASES
Mission
Operational Commercial Communications
Bus & Motor
STARLIGHTB, Unknown motor
Mass
40 kg wet, ~40 kg dry
Launch date (UTC)
2021-07-19 (5 years ago)
Launch vehicle
CHANG ZHENG 2C
Launch site
Xichang Space Center, China (XSC)
Object type
Payload
Rocket body
Debris
Shape & HBR
Box, 0.3 m
Radar Cross Section
0.195 m², Medium (>0.1 m² and < 1m²)

Expand to show TLE details & history
Last TLE update: 2 days ago

TLE from 2 days ago
0 TIANQI-15
1 49027U 21065B   26171.42130924  .00003259  00000-0  19515-3 0  9991
2 49027  34.9968 195.6683 0005070  81.1411 278.9874 15.10552731269764
Epoch: 2026-06-20T10:06Z
TLE epoch observation values (Epoch: 2026-06-20T10:06:41.118Z)
Latitude
0.00001°
Longitude
135.36081°
Altitude
532.88 km
Speed
7.599 km/s
True Right ascension
13h 02m 40s
True Declination
0° 00' 00"
Sunlit
Object was in daylight at epoch
Visualization orbit readout
Latitude
Unknown
Longitude
Unknown
Altitude
Unknown
Speed
Unknown
Apparent Right ascension
Unknown
Apparent Declination
Unknown
Sunlit
N/A
Visualization observer readout
Local Sidereal Time
21:33:33
Azimuth
Unknown
Elevation
Unknown
Doppler factor
Unknown
Orbital elements
Apogee altitude
541.253 km
Perigee altitude
534.24 km
Semi-major axis
6,915.883 km
Eccentricity
0.00051
Inclination
34.9968°
RAAN
195.6683°
Arg. of periapsis
81.1411°
True anomaly
278.93001°
Mean anomaly
278.9874°
Eccentric anomaly
278.95871°
Mean motion
3.77374 °/min
Orbital period
95.4 mins
BSTAR
0.00019515
Loading maneuver chart data...
Computing Atmospheric mass density...
Loading historical data...
Loading historical data...
Loading historical data...
Loading historical data...
Loading historical data...
Loading historical data...
Loading historical data...
Other satellites on launch #65 in the year 2021 (2021-07-19 UTC)

Documentation

Showing up to 5 results
|